Lid_Strength_Index
9 10 9 9 9 9 9 8 8 7 7 6 5 3 2 2 2 2 3 4 4 4
9 9 10 9 8 9 9 8 8 7 7 5 5 4 3 3 3 3 4 4 4 5
10 9 9 9 9 8 8 8 8 7 7 6 5 4 5 4 4 4 4 4 5 5
11 9 9 9 9 8 7 7 8 7 7 7 6 5 4 4 4 5 4 4 4 4
11 10 9 9 9 8 8 7 8 7 7 7 5 4 4 5 5 5 5 5 4 4
11 11 10 9 9 7 8 8 8 7 7 6 5 4 4 5 5 5 5 5 4 5
11 11 11 9 8 7 7 8 7 7 7 6 5 4 4 5 5 5 5 5 5 4
11 11 10 10 8 8 7 6 6 8 7 6 6 5 4 5 5 5 5 5 5 5
11 10 11 10 9 8 7 7 7 7 7 7 6 8 7 6 5 5 6 6 8 8
11 11 11 10 10 7 7 7 7 7 7 7 7 9 9 9 5 6 7 7 8 10
12 12 11 11 10 8 8 8 8 8 8 8 8 10 9 9 7 7 8 8 8 9
11 12 12 11 10 9 9 9 8 9 9 9 9 10 9 8 8 9 9 9 9 9
12 12 12 12 11 12 11 11 12 12 11 12 10 11 10 8 9 11 13 12 12 13
12 12 11 11 12 12 13 13 12 12 12 12 12 10 10 10 10 12 13 13 14 14